Hourly Data Report for December 23, 2020

L'ASSOMPTION
QUEBEC
Current Station Operator: ECCC - MSC

45°48'34.000" N
73°26'05.000" W
21.00 m
7014160
71524
WEW

Download Data

Hourly Data (December 2020)
Hourly Data Report for December 23, 2020
TIME
LST
Temp Definition
°C
Dew Point Definition
°C
Rel Hum Definition
%
Precip. Amount Definition
mm

Wind Dir Definition
10's deg

Wind Spd Definition
km/h
Visibility Definition
km
Stn Press Definition
kPa
Hmdx Definition


Wind Chill Definition


Weather Definition


00:00 -5.8 -10.6 69 0.0 25 15   101.76   -12 LegendNANA
01:00 -6.2 -11.4 66 0.0 26 15   101.90   -12 LegendNANA
02:00 -6.8 -12.7 63 0.0 28 15   101.99   -13 LegendNANA
03:00 -7.6 -12.4 69 0.0 25 6   102.17   -11 LegendNANA
04:00 -8.1 -13.4 66 0.2 26 12   102.26   -14 LegendNANA
05:00 -9.2 -13.5 71 0.0 25 8   102.36   -14 LegendNANA
06:00 -10.5 -13.7 77 0.0 24 7   102.47   -15 LegendNANA
07:00 -10.5 -12.8 83 0.0 24 5   102.56   -14 LegendNANA
08:00 -10.9 -13.1 83 0.0 22 6   102.60   -15 LegendNANA
09:00 -9.1 -12.8 75 0.0 23 4   102.65   -11 LegendNANA
10:00 -7.5 -12.4 68 0.0 23 8   102.70   -12 LegendNANA
11:00 -6.4 -12.9 60 0.0 25 6   102.67   -9 LegendNANA
12:00 -5.8 -12.2 60 0.0 21 7   102.56   -9 LegendNANA
13:00 -5.3 -11.3 63 0.0 22 8   102.52   -9 LegendNANA
14:00 -5.2 -10.4 67 0.0 15 8   102.43   -9 LegendNANA
15:00 -5.8 -8.3 82 0.0 18 9   102.43   -10 LegendNANA
16:00 -6.1 -7.5 90 0.6 12 9   102.34   -10 LegendNANA
17:00 -5.7 -7.1 90 0.2 8 6   102.34   -9 LegendNANA
18:00 -5.1 -6.5 90 0.0 9 8   102.20   -9 LegendNANA
19:00 -4.4 -5.6 91 0.0 8 12   101.98   -9 LegendNANA
20:00 -3.9 -5.2 90 0.0 6 8   101.90   -7 LegendNANA
21:00 -3.5 -4.9 90 0.0 5 9   101.79   -7 LegendNANA
22:00 -3.6 -5.0 90 0.0 5 8   101.68   -7 LegendNANA
23:00 -2.7 -4.1 90 0.0 7 9   101.61   -6 LegendNANA

Notes on Data Quality.

Legend

  • E = Estimated
  • M = Missing
  • NA = Not Available*
  • [empty] = Indicates an unobserved value
Date modified: